When you browse on this site, cookies collect data to enhance your experience and personalize the content and advertising you see.
Visit our Privacy Policy to learn more. By continuing to use the site, you agree to this use of cookies and data.

Hourly Weather Lubana

Today, 4 July, Saturday

Time Temperature Precipitation Wind Pressure Humidity
00:00 +15°C° 0 mm 1 mps 750 mmHg 89%
01:00 +14°C° 0 mm 1 mps 750 mmHg 93%
02:00 +14°C° 0 mm 1 mps 751 mmHg 96%
03:00 +14°C° 0 mm 1 mps 751 mmHg 96%
04:00 +14°C° 0 mm 2 mps 750 mmHg 96%
05:00 +14°C° 0 mm 2 mps 750 mmHg 95%
06:00 +15°C° 0 mm 2 mps 751 mmHg 87%
07:00 +17°C° 0 mm 2 mps 751 mmHg 78%
08:00 +19°C° 0 mm 2 mps 751 mmHg 69%
09:00 +20°C° 0 mm 3 mps 751 mmHg 64%
10:00 +21°C° 0 mm 3 mps 751 mmHg 58%
11:00 +22°C° 0 mm 4 mps 751 mmHg 52%
12:00 +22°C° 0 mm 4 mps 751 mmHg 51%
13:00 +23°C° 0 mm 4 mps 751 mmHg 50%
14:00 +23°C° 0 mm 4 mps 750 mmHg 49%
15:00 +23°C° 0 mm 4 mps 750 mmHg 55%
16:00 +22°C° 0 mm 4 mps 750 mmHg 61%
17:00 +21°C° 0 mm 3 mps 750 mmHg 67%
18:00 +20°C° 0 mm 3 mps 750 mmHg 72%
19:00 +19°C° 0 mm 2 mps 750 mmHg 78%
20:00 +19°C° 0 mm 2 mps 750 mmHg 83%
21:00 +18°C° 0 mm 2 mps 750 mmHg 85%
22:00 +18°C° 0 mm 3 mps 749 mmHg 86%
23:00 +18°C° 0 mm 3 mps 749 mmHg 88%

Tomorrow, 5 July, Sunday

Time Temperature Precipitation Wind Pressure Humidity
00:00 +18°C° 0 mm 3 mps 749 mmHg 86%
01:00 +18°C° 0 mm 3 mps 749 mmHg 84%
02:00 +18°C° 0 mm 4 mps 749 mmHg 82%
03:00 +18°C° 0.1 mm 4 mps 748 mmHg 84%
04:00 +18°C° 0.1 mm 4 mps 748 mmHg 87%
05:00 +17°C° 0.1 mm 4 mps 747 mmHg 89%
06:00 +17°C° 0.5 mm 4 mps 747 mmHg 92%
07:00 +17°C° 0.5 mm 4 mps 747 mmHg 94%
08:00 +15°C° 0.5 mm 4 mps 747 mmHg 97%
09:00 +17°C° 0.3 mm 4 mps 747 mmHg 96%
10:00 +17°C° 0.3 mm 4 mps 747 mmHg 95%
11:00 +18°C° 0.3 mm 4 mps 747 mmHg 94%
12:00 +18°C° 0.3 mm 4 mps 747 mmHg 92%
13:00 +19°C° 0.3 mm 4 mps 747 mmHg 91%
14:00 +19°C° 0.3 mm 4 mps 746 mmHg 90%
15:00 +20°C° 0.2 mm 4 mps 746 mmHg 85%
16:00 +21°C° 0.2 mm 4 mps 746 mmHg 79%
17:00 +22°C° 0.2 mm 4 mps 746 mmHg 74%
18:00 +22°C° 0.1 mm 4 mps 746 mmHg 78%
19:00 +21°C° 0.1 mm 3 mps 745 mmHg 82%
20:00 +20°C° 0.1 mm 3 mps 745 mmHg 86%
21:00 +20°C° 0 mm 3 mps 745 mmHg 88%
22:00 +19°C° 0 mm 4 mps 745 mmHg 90%
23:00 +19°C° 0 mm 4 mps 744 mmHg 93%

Day after tomorrow, 6 July, Monday

Time Temperature Precipitation Wind Pressure Humidity
00:00 +19°C° 0 mm 4 mps 744 mmHg 92%
01:00 +19°C° 0 mm 5 mps 744 mmHg 91%
02:00 +19°C° 0 mm 5 mps 744 mmHg 91%
03:00 +19°C° 0.1 mm 4 mps 744 mmHg 92%
04:00 +19°C° 0.1 mm 4 mps 744 mmHg 92%
05:00 +19°C° 0.1 mm 4 mps 743 mmHg 93%
06:00 +19°C° 0.2 mm 4 mps 743 mmHg 92%
07:00 +19°C° 0.2 mm 4 mps 744 mmHg 90%
08:00 +19°C° 0.2 mm 4 mps 744 mmHg 89%
09:00 +19°C° 0.2 mm 4 mps 744 mmHg 88%
10:00 +19°C° 0.2 mm 4 mps 744 mmHg 88%
11:00 +19°C° 0.2 mm 4 mps 744 mmHg 88%
12:00 +19°C° 0.1 mm 4 mps 744 mmHg 84%
13:00 +20°C° 0.1 mm 5 mps 744 mmHg 79%
14:00 +20°C° 0.1 mm 5 mps 744 mmHg 75%
15:00 +21°C° 0 mm 5 mps 744 mmHg 70%
16:00 +21°C° 0 mm 4 mps 744 mmHg 65%
17:00 +21°C° 0 mm 4 mps 744 mmHg 60%
18:00 +20°C° 0 mm 3 mps 744 mmHg 65%
19:00 +19°C° 0 mm 3 mps 744 mmHg 69%
20:00 +18°C° 0 mm 2 mps 745 mmHg 74%
21:00 +17°C° 0 mm 2 mps 745 mmHg 76%
22:00 +16°C° 0 mm 2 mps 745 mmHg 79%
23:00 +14°C° 0 mm 2 mps 745 mmHg 82%

7 July, Tuesday

Time Temperature Precipitation Wind Pressure Humidity
00:00 +13°C° 0 mm 2 mps 745 mmHg 83%
01:00 +13°C° 0 mm 2 mps 745 mmHg 85%
02:00 +12°C° 0 mm 2 mps 746 mmHg 86%
03:00 +11°C° 0 mm 3 mps 746 mmHg 85%
04:00 +11°C° 0 mm 3 mps 746 mmHg 84%
05:00 +12°C° 0 mm 3 mps 746 mmHg 82%
06:00 +13°C° 0 mm 3 mps 746 mmHg 76%
07:00 +15°C° 0 mm 4 mps 746 mmHg 70%
08:00 +18°C° 0 mm 4 mps 746 mmHg 64%
09:00 +18°C° 0 mm 4 mps 746 mmHg 60%
10:00 +19°C° 0 mm 4 mps 747 mmHg 56%
11:00 +20°C° 0 mm 4 mps 747 mmHg 53%
12:00 +21°C° 0 mm 4 mps 747 mmHg 52%
13:00 +21°C° 0 mm 5 mps 746 mmHg 51%
14:00 +22°C° 0 mm 5 mps 746 mmHg 50%
15:00 +21°C° 0 mm 4 mps 746 mmHg 51%
16:00 +20°C° 0 mm 4 mps 747 mmHg 53%
17:00 +20°C° 0 mm 4 mps 747 mmHg 55%
18:00 +19°C° 0 mm 3 mps 747 mmHg 61%
19:00 +17°C° 0 mm 3 mps 747 mmHg 66%
20:00 +16°C° 0 mm 2 mps 747 mmHg 72%
21:00 +15°C° 0 mm 2 mps 747 mmHg 78%
22:00 +14°C° 0 mm 2 mps 748 mmHg 84%
23:00 +12°C° 0 mm 2 mps 748 mmHg 90%

8 July, Wednesday

Time Temperature Precipitation Wind Pressure Humidity
00:00 +12°C° 0 mm 2 mps 748 mmHg 92%
01:00 +10°C° 0 mm 2 mps 748 mmHg 95%
02:00 +9°C° 0 mm 2 mps 748 mmHg 97%
03:00 +9°C° 0 mm 2 mps 748 mmHg 96%
04:00 +9°C° 0 mm 2 mps 748 mmHg 95%
05:00 +9°C° 0 mm 2 mps 748 mmHg 94%
06:00 +12°C° 0 mm 2 mps 748 mmHg 86%
07:00 +14°C° 0 mm 2 mps 748 mmHg 78%
08:00 +16°C° 0 mm 2 mps 747 mmHg 71%
09:00 +17°C° 0 mm 2 mps 747 mmHg 64%
10:00 +18°C° 0 mm 2 mps 747 mmHg 58%
11:00 +20°C° 0 mm 2 mps 747 mmHg 51%
12:00 +19°C° 0.5 mm 2 mps 747 mmHg 59%
13:00 +18°C° 0.5 mm 3 mps 747 mmHg 68%
14:00 +18°C° 0.5 mm 3 mps 747 mmHg 76%
15:00 +18°C° 0.7 mm 3 mps 746 mmHg 77%
16:00 +17°C° 0.7 mm 3 mps 746 mmHg 78%
17:00 +17°C° 0.7 mm 3 mps 746 mmHg 79%
18:00 +16°C° 0.2 mm 2 mps 747 mmHg 83%
19:00 +15°C° 0.2 mm 2 mps 747 mmHg 87%
20:00 +14°C° 0.2 mm 2 mps 747 mmHg 91%
21:00 +13°C° 0 mm 2 mps 747 mmHg 93%
22:00 +12°C° 0 mm 2 mps 747 mmHg 95%
23:00 +10°C° 0 mm 2 mps 747 mmHg 96%

9 July, Thursday

Time Temperature Precipitation Wind Pressure Humidity
00:00 +9°C° 0 mm 2 mps 747 mmHg 97%
01:00 +9°C° 0 mm 2 mps 748 mmHg 97%
02:00 +9°C° 0 mm 2 mps 748 mmHg 97%
03:00 +9°C° 0 mm 2 mps 748 mmHg 97%
04:00 +9°C° 0 mm 2 mps 748 mmHg 97%
05:00 +9°C° 0 mm 2 mps 748 mmHg 97%
06:00 +10°C° 0 mm 3 mps 748 mmHg 92%
07:00 +12°C° 0 mm 3 mps 748 mmHg 87%
08:00 +14°C° 0 mm 3 mps 748 mmHg 83%
09:00 +14°C° 0 mm 4 mps 747 mmHg 82%
10:00 +14°C° 0 mm 4 mps 747 mmHg 82%
11:00 +13°C° 0 mm 4 mps 747 mmHg 82%
12:00 +13°C° 0 mm 4 mps 747 mmHg 83%
13:00 +13°C° 0 mm 4 mps 747 mmHg 85%
14:00 +13°C° 0 mm 4 mps 747 mmHg 87%
15:00 +14°C° 0.1 mm 4 mps 747 mmHg 86%
16:00 +15°C° 0.1 mm 4 mps 746 mmHg 85%
17:00 +17°C° 0.1 mm 4 mps 746 mmHg 84%
18:00 +16°C° 0.1 mm 3 mps 746 mmHg 85%
19:00 +16°C° 0.1 mm 3 mps 746 mmHg 87%
20:00 +14°C° 0.1 mm 3 mps 746 mmHg 89%
21:00 +14°C° 0 mm 3 mps 746 mmHg 90%
22:00 +13°C° 0 mm 3 mps 747 mmHg 92%
23:00 +12°C° 0 mm 3 mps 747 mmHg 93%
Show more